Temperature
20 20 19 19 19 19 19 18 18 18 18 18 17 17 17 17 17 17 16 16 16 16 16 16 15 15 15 16 15 15 15 15 16 16 15 15 15 14 14 14 14 14 14
20 19 19 19 19 19 18 18 18 18 18 17 17 17 16 16 16 16 16 16 16 15 15 15 15 15 15 15 15 15 15 15 15 15 15 15 14 14 14 14 14 14 14
19 19 19 19 19 18 18 18 18 18 17 17 17 17 16 16 16 16 16 16 15 15 15 15 15 14 14 15 15 15 15 15 15 15 15 14 14 14 14 14 14 14 14
19 19 19 19 18 18 18 18 18 17 17 17 17 17 16 16 16 16 15 15 15 15 15 15 14 14 14 14 14 14 14 14 14 14 14 14 14 14 14 14 14 14 14
19 19 19 19 18 18 18 17 17 17 17 16 16 16 16 16 16 15 15 15 15 15 15 14 14 14 14 14 14 14 14 14 14 14 14 14 14 13 14 14 14 14 14
19 18 18 18 18 18 17 17 17 17 16 16 16 16 16 16 16 16 15 15 15 14 14 14 14 14 14 14 14 14 14 14 14 14 14 14 13 13 13 13 13 13 14
18 18 18 18 17 17 17 17 17 17 16 16 16 16 16 16 16 16 15 15 14 14 14 14 14 14 14 14 14 14 14 14 13 13 13 13 13 13 13 13 13 13 13
17 17 17 17 17 17 17 16 16 16 16 16 16 16 15 15 15 15 15 15 14 14 14 14 14 14 14 14 13 13 13 13 13 13 13 12 12 12 12 12 12 12 13
17 17 17 17 16 16 16 16 16 16 16 15 15 15 15 15 15 15 15 14 14 14 14 13 13 13 13 13 13 13 13 13 13 13 13 13 13 12 12 12 12 12 13
17 16 16 16 16 16 16 16 16 15 15 15 15 15 15 15 15 15 14 14 14 13 13 13 13 13 13 13 13 13 12 12 12 13 12 12 12 12 12 12 12 12 12
16 16 16 16 15 15 15 15 15 15 15 14 14 14 14 14 14 14 14 14 13 13 13 13 13 13 13 13 13 12 12 12 12 12 12 12 12 12 12 12 12 12 12
16 16 15 15 15 15 15 15 15 14 14 14 14 14 14 14 14 14 14 14 14 13 13 13 13 13 13 13 13 12 12 12 12 12 12 12 12 12 12 12 11 11 11
15 15 15 15 15 15 15 14 14 14 14 14 13 13 13 13 13 13 13 13 13 13 13 13 13 13 13 12 12 12 12 12 12 12 12 12 12 12 11 11 11 11 11
15 15 15 15 15 14 14 14 14 14 13 13 13 13 13 13 13 13 13 13 13 13 12 12 12 12 12 12 12 12 12 12 12 12 12 12 12 12 11 11 11 11 11
14 14 14 14 14 13 13 13 13 13 13 13 13 13 12 12 12 12 12 12 12 12 12 12 12 12 12 12 12 12 12 12 12 12 12 12 11 11 11 11 11 11 11
14 14 13 13 13 13 13 13 13 13 13 13 13 12 12 12 12 12 12 12 12 12 11 11 12 12 12 12 12 12 12 11 11 11 11 11 11 11 11 11 11 11 11
13 13 13 13 13 12 12 13 12 12 12 12 12 12 12 12 12 12 12 11 11 11 11 11 11 11 11 11 11 11 11 11 11 11 11 11 11 11 11 11 11 11 11
12 12 12 12 12 12 12 12 12 12 12 12 12 12 11 11 11 11 11 11 11 11 11 11 11 11 11 11 11 11 11 11 11 11 11 11 11 11 11 11 11 11 11
12 12 12 12 12 12 11 11 12 12 12 12 11 11 11 11 11 11 11 11 11 11 11 11 11 11 11 11 11 10 10 10 10 10 11 10 10 11 11 11 11 11 10
11 11 11 11 11 11 11 11 11 11 11 11 11 11 11 11 11 11 11 10 10 10 10 10 10 10 10 10 10 10 10 10 10 10 10 10 10 10 10 10 10 10 10
11 11 11 11 11 11 11 11 11 11 11 11 11 11 11 10 11 10 10 10 10 10 10 10 10 10 10 10 10 10 10 10 10 10 10 10 10 10 10 10 10 10 10
11 11 11 11 11 10 10 10 10 10 10 10 10 10 10 10 10 10 10 10 10 10 10 10 10 10 9 9 9 9 9 9 10 10 9 9 9 9 9 9 10 10 10
10 10 10 10 10 10 10 10 10 10 10 10 10 10 10 10 10 10 10 9 9 9 9 9 9 9 9 9 9 9 9 9 9 9 9 9 9 9 9 9 9 9 9
10 10 10 10 10 10 10 10 10 10 10 10 9 9 9 9 9 9 9 9 9 9 9 9 9 9 9 9 9 9 9 9 9 9 9 9 9 9 9 9 9 9 9
9 9 9 9 9 9 9 9 9 9 9 9 9 9 9 9 9 9 9 9 8 9 8 8 8 8 8 8 8 8 8 9 9 8 9 9 9 9 9 9 9 9 9
9 9 9 9 9 9 9 9 9 9 9 9 9 9 9 9 9 9 8 8 8 8 8 8 8 8 8 8 8 8 8 8 8 8 8 8 8 8 8 8 8 8 8
Wind_Speed
6 6 5 5 6 6 5 5 5 4 4 4 4 4 3 3 3 3 3 3 3 3 3 2 2 4 4 3 3 4 4 5 5 4 2 1 1 3 2 4 4 5 4
5 5 6 5 5 6 6 6 5 5 5 5 5 5 4 4 4 4 4 4 4 3 3 2 3 2 3 3 3 4 3 4 4 4 3 3 3 3 3 4 4 4 4
5 6 5 5 5 5 5 5 5 5 5 5 5 5 4 4 5 4 4 4 4 4 3 3 3 3 3 2 3 3 3 3 3 4 4 3 3 3 3 4 4 4 5
5 5 5 5 5 4 5 5 5 5 5 5 4 4 5 5 5 5 4 4 4 4 3 3 3 3 3 3 3 3 3 3 4 4 4 4 3 3 3 4 4 3 4
5 5 4 4 4 4 5 5 5 5 5 5 4 5 5 5 5 4 5 5 4 4 4 4 4 2 2 3 3 3 3 4 4 4 4 4 3 3 4 4 4 4 4
5 5 4 4 4 4 5 5 5 5 4 4 5 5 5 4 4 3 4 4 4 5 4 4 4 3 3 3 2 3 4 5 5 5 4 4 4 4 4 5 5 5 5
5 4 4 4 4 4 4 4 5 5 4 4 5 5 5 4 4 5 5 5 5 4 4 4 4 2 3 3 4 6 5 5 5 6 5 5 4 4 4 5 5 6 6
5 4 4 5 4 4 4 4 4 4 4 5 5 5 5 4 5 6 6 7 6 5 5 5 5 4 3 3 4 4 5 4 5 5 4 5 4 3 4 5 5 6 6
4 4 4 4 4 4 5 5 4 4 4 5 5 5 5 4 5 6 6 6 5 6 6 5 5 5 2 3 5 5 4 4 4 3 3 3 3 4 5 5 5 6 5
3 3 4 4 4 4 4 4 4 4 5 5 4 4 4 4 5 6 7 6 5 5 5 6 4 4 3 4 6 6 6 5 4 4 5 6 6 6 7 6 6 6 5
3 3 3 4 4 4 3 4 4 4 4 4 4 4 4 4 5 6 7 6 5 6 5 5 4 6 5 5 7 6 5 5 6 6 5 4 5 4 5 5 6 6 6
2 3 3 3 4 3 3 4 4 4 5 4 4 4 4 4 4 5 7 8 7 7 6 5 3 6 7 7 6 4 4 6 6 5 5 5 5 5 4 4 5 6 7
2 2 3 3 3 3 4 4 4 4 4 3 3 4 4 4 4 6 8 8 8 7 5 3 2 6 7 7 8 7 6 6 6 6 6 5 5 4 4 4 5 6 7
2 2 3 3 3 3 3 4 3 4 4 4 4 5 4 4 4 3 4 5 7 7 6 4 5 7 7 5 5 7 7 6 6 6 6 5 5 4 5 5 5 5 5
1 2 3 3 2 2 3 2 3 3 2 4 4 4 5 5 2 2 3 4 4 4 4 4 5 5 5 6 5 5 6 6 6 6 6 6 5 5 5 5 5 6 6
1 1 2 2 2 2 2 2 0 2 2 2 3 4 3 1 1 2 3 4 4 4 5 6 6 6 6 6 5 5 5 6 6 6 6 6 6 6 6 5 5 6 7
2 2 2 2 2 2 2 3 3 2 4 5 5 4 4 2 3 3 4 4 5 6 6 6 5 5 5 5 5 5 5 5 5 6 6 6 6 6 6 6 6 6 6
2 1 1 2 2 2 3 3 3 4 3 3 5 6 6 5 5 5 5 4 5 6 6 5 5 5 5 5 5 5 6 5 5 6 6 6 6 6 6 6 6 7 7
2 2 2 2 3 3 3 4 4 4 4 4 3 3 6 6 7 7 7 5 5 5 5 5 5 5 5 5 5 6 6 6 5 6 6 6 6 6 6 7 6 6 7
2 1 3 3 3 3 3 4 4 4 5 4 4 3 2 4 4 5 5 5 6 6 6 5 5 5 5 5 5 5 5 5 5 6 6 5 6 6 7 7 7 6 7
2 2 3 4 3 3 3 4 4 4 4 5 4 2 2 4 5 5 5 5 6 6 6 5 5 5 5 5 5 5 6 6 6 6 6 6 6 6 6 6 6 7 7
3 3 3 3 3 3 4 4 4 5 5 5 5 3 4 5 5 5 5 5 5 5 5 5 5 5 5 4 4 5 6 6 6 5 6 6 6 7 6 6 6 6 6
4 3 3 4 3 3 4 4 5 5 5 5 5 5 4 5 5 5 5 4 4 4 4 4 5 5 4 4 5 5 5 5 5 6 6 7 7 6 6 7 7 7 7
4 4 4 4 4 4 4 5 5 5 5 5 5 5 5 5 5 5 5 5 5 5 4 5 5 6 6 5 5 5 5 4 6 6 7 7 8 7 7 7 8 8 8
4 5 5 5 5 5 5 5 5 6 6 5 5 6 5 5 6 5 5 5 5 5 5 5 4 5 7 7 7 6 3 3 5 7 7 7 8 9 9 9 8 8 8
5 6 6 6 6 6 6 6 6 6 6 6 6 6 6 6 6 5 5 5 5 5 5 5 6 7 7 7 6 4 2 3 5 8 8 7 8 8 8 8 9 8 8
Wind_Direction
196 201 204 205 210 213 216 218 219 222 221 220 218 215 202 198 196 197 213 212 217 225 242 241 262 291 284 276 267 262 259 259 260 265 242 206 248 277 262 256 249 241 210
195 195 200 200 206 212 209 208 209 209 214 216 216 213 210 205 208 208 218 223 224 227 237 244 255 264 270 279 282 275 271 265 253 256 252 231 230 248 259 263 259 251 256
193 191 192 198 203 210 210 207 205 201 204 209 210 212 212 213 215 218 220 229 228 230 233 239 251 263 270 275 273 274 270 261 250 248 248 251 248 250 254 257 265 273 266
187 186 195 202 205 206 208 209 205 201 202 210 213 213 212 216 218 223 223 226 228 231 237 244 252 261 265 264 254 259 267 270 254 250 249 243 242 244 255 260 259 254 267
190 189 196 203 205 205 207 210 206 210 212 207 209 209 211 215 215 217 226 224 223 231 238 243 246 253 300 292 288 281 268 264 262 257 254 254 252 254 260 270 272 275 262
193 198 192 193 194 199 204 208 205 207 214 215 214 213 216 217 158 191 235 232 226 230 239 244 240 220 209 213 265 296 294 269 271 269 262 263 267 265 272 273 275 276 273
198 200 191 190 186 193 203 201 205 207 209 213 220 221 224 211 172 186 219 236 235 236 238 244 250 229 205 227 216 220 241 255 268 275 276 275 269 272 275 270 277 282 285
202 201 197 195 192 190 196 204 209 209 211 215 219 223 227 213 179 192 210 225 239 239 238 237 242 246 237 244 247 240 241 239 244 252 270 277 277 272 260 266 273 267 266
200 203 203 200 202 202 203 208 210 209 211 219 220 223 226 216 183 193 212 227 231 240 241 238 239 235 220 246 245 245 247 243 221 221 257 272 288 269 267 263 260 262 268
206 209 207 204 208 209 208 210 208 210 212 218 213 220 228 230 192 194 212 232 233 237 234 234 220 231 210 228 241 249 251 254 258 238 229 230 234 228 231 251 259 261 269
206 203 195 198 205 205 207 212 213 214 216 220 217 222 229 235 204 192 208 231 242 246 245 239 222 179 209 228 250 257 260 266 255 250 247 246 242 239 240 245 256 263 267
207 205 196 200 210 192 200 210 214 218 217 216 221 235 235 234 233 207 206 227 254 249 251 250 224 178 207 227 238 242 250 259 255 252 252 253 253 252 251 254 255 262 268
224 213 206 209 215 209 203 204 205 206 222 223 226 239 247 242 223 199 206 219 238 250 260 284 235 195 208 221 221 224 232 246 252 251 252 254 256 257 259 250 245 243 250
246 231 216 208 213 214 224 214 214 219 227 235 241 244 244 243 245 238 235 227 224 237 250 227 198 201 222 230 215 220 234 244 251 254 256 256 254 247 248 257 262 255 252
261 253 248 230 219 226 234 252 243 244 248 253 256 254 250 247 250 311 271 251 249 251 254 241 233 222 224 226 230 234 238 238 243 252 257 257 256 258 257 257 259 264 264
312 296 273 256 236 234 235 257 247 244 183 223 267 275 272 280 214 225 256 273 258 236 238 237 234 234 237 236 236 239 243 248 253 257 259 257 256 257 256 255 253 256 262
310 305 298 288 258 246 248 252 261 238 209 217 227 240 247 243 225 221 223 236 238 219 232 241 240 241 243 244 243 247 251 247 250 253 253 254 259 259 255 254 252 255 261
289 289 276 286 279 265 260 263 264 267 258 246 216 210 218 223 222 219 211 221 231 226 245 250 246 243 243 245 249 255 258 254 248 252 257 258 257 260 260 256 253 254 258
281 288 294 294 284 276 269 267 267 267 266 265 256 212 201 216 219 217 209 238 248 244 248 253 254 250 246 243 247 252 256 254 255 259 261 261 259 260 263 263 259 254 257
278 291 278 275 274 273 271 272 273 271 272 271 269 270 224 219 239 229 227 245 257 257 253 250 250 251 249 247 246 248 253 254 253 256 260 260 262 262 262 265 266 263 257
283 259 237 259 268 272 274 276 277 275 276 279 276 274 260 261 259 254 247 244 251 257 258 256 253 249 247 246 249 250 255 258 255 257 260 259 261 263 266 265 265 266 262
282 277 272 274 277 278 283 280 277 276 275 276 279 261 199 249 265 261 258 256 256 256 257 254 255 254 254 253 253 255 256 257 259 256 261 264 262 263 265 265 265 267 264
279 278 279 279 277 275 274 279 281 280 279 278 279 279 263 260 264 265 263 261 264 263 261 259 258 258 254 253 259 258 260 265 265 268 267 265 263 259 260 260 261 264 261
282 281 280 280 275 274 275 277 280 282 283 282 279 276 272 267 268 269 267 262 259 258 256 252 253 255 256 259 260 260 264 280 282 269 266 266 264 262 260 259 261 262 263
282 282 281 281 278 275 274 274 276 279 280 281 280 279 277 274 270 270 268 264 260 261 265 263 261 258 257 257 260 268 300 312 293 287 270 263 260 260 260 263 263 263 260
283 277 276 277 277 277 275 272 270 273 275 277 280 283 284 283 280 275 272 267 263 258 260 259 258 263 267 262 263 275 271 264 273 281 274 261 257 256 258 262 267 265 262
Height
1522 1523 1525 1526 1526 1527 1528 1529 1529 1530 1530 1530 1531 1531 1531 1531 1531 1531 1532 1531 1531 1531 1531 1531 1530 1530 1531 1531 1531 1531 1531 1531 1531 1531 1530 1529 1529 1529 1528 1528 1527 1526 1526
1519 1520 1522 1522 1523 1524 1525 1525 1525 1526 1527 1527 1528 1528 1528 1529 1529 1529 1529 1529 1529 1528 1528 1528 1528 1528 1527 1528 1528 1528 1528 1528 1528 1528 1528 1528 1527 1526 1526 1525 1526 1526 1525
1516 1518 1518 1519 1520 1521 1521 1522 1523 1523 1524 1524 1525 1525 1526 1526 1526 1526 1526 1526 1526 1526 1526 1526 1526 1526 1525 1525 1525 1526 1526 1526 1526 1525 1525 1525 1525 1525 1524 1523 1523 1522 1523
1514 1514 1516 1516 1517 1518 1518 1519 1520 1520 1521 1522 1522 1523 1523 1523 1523 1523 1523 1523 1523 1523 1523 1523 1523 1523 1523 1523 1523 1523 1523 1524 1523 1523 1523 1523 1523 1522 1522 1521 1521 1520 1520
1510 1512 1512 1513 1514 1515 1515 1516 1517 1517 1518 1519 1519 1520 1520 1520 1520 1520 1520 1521 1520 1521 1521 1521 1520 1520 1520 1520 1521 1521 1521 1521 1521 1521 1521 1521 1520 1520 1520 1519 1519 1518 1517
1507 1508 1509 1510 1511 1511 1512 1513 1513 1514 1515 1516 1516 1516 1516 1517 1516 1517 1517 1518 1518 1518 1518 1518 1518 1518 1517 1517 1518 1518 1518 1519 1519 1519 1518 1518 1517 1517 1516 1516 1516 1515 1515
1504 1505 1506 1507 1508 1508 1509 1510 1510 1511 1511 1512 1513 1513 1513 1513 1513 1514 1514 1515 1515 1515 1515 1515 1516 1516 1515 1515 1515 1515 1515 1515 1516 1516 1516 1515 1515 1514 1513 1513 1513 1512 1511
1502 1502 1503 1504 1504 1505 1505 1506 1507 1507 1508 1508 1509 1509 1510 1510 1510 1510 1511 1511 1512 1512 1512 1512 1512 1512 1512 1513 1513 1513 1513 1513 1512 1513 1513 1513 1512 1511 1511 1511 1510 1509 1508
1499 1499 1500 1501 1501 1502 1502 1503 1504 1504 1505 1505 1506 1506 1506 1507 1507 1507 1508 1508 1508 1508 1509 1509 1508 1508 1509 1509 1510 1510 1510 1510 1510 1509 1509 1509 1508 1508 1508 1508 1507 1507 1506
1496 1497 1497 1498 1498 1499 1499 1500 1501 1501 1502 1502 1502 1503 1503 1503 1503 1504 1504 1505 1505 1505 1505 1505 1505 1505 1506 1506 1507 1507 1507 1507 1507 1507 1506 1506 1505 1505 1504 1504 1504 1504 1503
1494 1494 1495 1495 1495 1496 1497 1497 1497 1498 1498 1498 1499 1499 1499 1500 1500 1500 1500 1500 1501 1502 1503 1502 1502 1502 1502 1502 1503 1504 1504 1504 1504 1504 1504 1503 1503 1502 1502 1501 1500 1500 1499
1491 1491 1492 1492 1493 1493 1493 1494 1494 1494 1495 1494 1495 1495 1496 1496 1496 1496 1496 1496 1497 1498 1498 1499 1499 1498 1498 1499 1499 1499 1500 1500 1501 1501 1501 1500 1500 1500 1499 1498 1496 1495 1495
1488 1488 1488 1489 1490 1490 1490 1490 1490 1490 1492 1491 1492 1492 1493 1492 1492 1492 1492 1492 1493 1493 1494 1494 1494 1494 1494 1495 1495 1496 1496 1497 1497 1497 1497 1497 1497 1496 1495 1494 1493 1492 1491
1485 1485 1486 1486 1486 1487 1487 1488 1488 1488 1488 1488 1488 1489 1489 1488 1488 1488 1487 1487 1488 1489 1489 1490 1490 1490 1490 1491 1492 1492 1493 1493 1494 1493 1493 1493 1493 1492 1491 1491 1490 1489 1488
1483 1483 1484 1484 1484 1484 1484 1484 1485 1485 1485 1485 1485 1485 1484 1485 1484 1484 1484 1484 1484 1485 1485 1485 1486 1486 1487 1487 1488 1488 1489 1489 1489 1489 1489 1489 1489 1488 1488 1487 1486 1486 1485
1481 1481 1482 1482 1481 1481 1481 1482 1481 1482 1481 1481 1481 1481 1481 1481 1481 1480 1480 1480 1480 1481 1481 1481 1482 1483 1483 1484 1484 1484 1484 1485 1485 1485 1485 1485 1485 1484 1484 1483 1483 1482 1482
1480 1479 1480 1479 1479 1479 1479 1479 1479 1479 1478 1478 1478 1478 1477 1477 1477 1477 1477 1477 1477 1477 1478 1478 1479 1479 1479 1480 1480 1480 1481 1481 1481 1481 1480 1480 1480 1480 1480 1480 1479 1479 1478
1478 1478 1477 1477 1477 1477 1477 1477 1477 1476 1476 1475 1474 1474 1473 1473 1473 1473 1473 1474 1474 1474 1474 1475 1475 1475 1475 1476 1476 1476 1477 1477 1477 1476 1476 1476 1476 1476 1476 1475 1475 1475 1474
1477 1476 1476 1475 1475 1475 1474 1474 1474 1473 1473 1473 1472 1471 1470 1470 1469 1469 1470 1470 1470 1470 1471 1471 1471 1471 1471 1472 1472 1472 1472 1472 1472 1472 1472 1472 1472 1472 1471 1471 1471 1470 1470
1475 1474 1473 1473 1473 1472 1472 1471 1471 1471 1470 1469 1469 1468 1467 1466 1466 1465 1465 1466 1466 1466 1466 1467 1467 1467 1467 1468 1468 1468 1468 1468 1468 1468 1468 1468 1468 1468 1467 1467 1467 1466 1466
1473 1472 1471 1471 1471 1470 1469 1469 1468 1468 1467 1466 1465 1465 1464 1463 1463 1462 1462 1462 1462 1462 1462 1462 1463 1463 1463 1463 1464 1464 1464 1464 1464 1464 1464 1464 1464 1463 1463 1463 1462 1462 1462
1470 1470 1469 1469 1468 1467 1466 1466 1465 1464 1464 1463 1462 1462 1460 1460 1459 1459 1459 1458 1458 1458 1458 1458 1459 1459 1459 1459 1459 1459 1460 1460 1460 1460 1459 1459 1459 1459 1459 1458 1458 1457 1457
1467 1467 1466 1465 1465 1464 1463 1462 1462 1461 1460 1459 1459 1458 1457 1456 1456 1455 1455 1454 1454 1454 1454 1454 1454 1455 1455 1455 1455 1455 1455 1455 1455 1455 1455 1455 1455 1454 1454 1454 1453 1453 1452
1465 1464 1463 1462 1462 1461 1460 1459 1458 1457 1456 1456 1455 1454 1453 1452 1451 1451 1451 1450 1450 1449 1449 1449 1449 1450 1450 1450 1450 1450 1451 1450 1450 1450 1450 1450 1450 1450 1449 1449 1448 1448 1448
1462 1461 1460 1459 1458 1457 1457 1455 1454 1453 1453 1452 1450 1449 1448 1447 1447 1446 1446 1445 1445 1444 1444 1444 1444 1444 1444 1444 1445 1445 1445 1445 1445 1445 1445 1445 1445 1444 1444 1444 1444 1444 1443
1458 1457 1456 1455 1455 1454 1453 1452 1450 1449 1448 1447 1446 1445 1444 1443 1442 1441 1440 1440 1440 1439 1438 1438 1439 1439 1439 1439 1439 1439 1439 1439 1440 1440 1440 1440 1440 1440 1440 1439 1439 1439 1439